Volver al catálogo

STARLINK-2084

ActivoComunicacionesVLEO
NORAD 47368·PAYLOAD·🇺🇸 United States

Lanzado Jan 20, 2021 desde Cape Canaveral Space Force Station

Loading…

Próximos Pases (próximas 24 horas)

TLE

ActualizadoSource: CelesTrak SupGP

Época: Sep 14, 2026, 13:38 UTC

1 47368C 21005V   26257.56854167  .00002794  00000+0  89907-4 0  2575
2 47368  53.1577 263.5108 0001196  77.0307 265.5019 15.31679010    16

Sigue STARLINK-2084 en tiempo real con AllMySat

Download on the App Store